Location: Presov
(49.0000°N, 21.2500°E)
Time: 07:34:11
(UTC+01:00)

BEESAT 2 - Visible Passes

Search period start: 03 December 2023 00:00
Search period end: 13 December 2023 00:00
Orbit: 358 x 383 km, 64.9° (Epoch: 02 December)

Date Brightness Start Highest point End Pass type
(mag) Time Alt. Az. Time Alt. Az. Time Alt. Az.
03 Dec ? 05:44:28 10° SSW 05:47:31 60° SE 05:50:36 10° NE visible
04 Dec ? 04:43:31 10° SSE 04:45:45 19° ESE 04:48:01 10° ENE visible
04 Dec ? 06:17:09 10° WSW 06:20:03 36° NW 06:22:58 10° NNE visible
05 Dec ? 05:16:13 27° SSW 05:17:43 70° SE 05:20:48 10° NE visible
06 Dec ? 04:16:43 16° E 04:16:43 16° E 04:17:46 10° ENE visible
06 Dec ? 05:48:43 26° W 05:49:41 32° NW 05:52:31 10° NNE visible
07 Dec ? 04:48:29 23° NE 04:48:29 23° NE 04:49:50 10° NE visible
07 Dec ? 06:20:27 12° WNW 06:21:37 14° NNW 06:23:21 10° N visible
08 Dec ? 05:19:40 19° N 05:19:40 19° N 05:20:54 10° NNE visible
09 Dec ? 05:50:21 12° NNW 05:50:21 12° NNW 05:51:04 10° N visible
